Wind_Speed
9 10 10 11 11 12 12 13 13 14 14 15 16 17 17 18 19 20 20 21 21 22 22 23 23 24 24 24 24 25 25 24 24 24 24 24 24 24 24 24 25 25 25 25 25 25 25 25 25 25 25 25 25 25 26 26 27 28 28 29 30 30 31 32 32 33 32 32 31 29 27 25 24 24 25 25 26 27 27 26 25 25 24 24 24 24
9 9 10 10 11 11 12 13 14 14 15 16 16 17 17 18 18 19 20 20 21 21 22 22 23 23 24 24 24 24 24 24 24 23 23 23 23 23 24 24 24 24 24 24 24 24 24 24 23 24 24 24 25 25 26 26 27 28 28 29 30 30 31 32 32 33 33 32 31 29 27 26 25 25 25 26 27 27 27 26 25 25 25 24 24 24
9 9 10 10 11 11 12 13 14 15 15 16 16 17 17 18 18 19 19 20 21 21 22 23 23 24 24 24 24 24 24 24 23 23 23 23 23 23 24 24 24 24 24 24 23 23 23 23 23 23 24 24 25 25 26 26 27 27 28 29 30 31 31 32 33 33 33 32 31 29 28 26 26 25 26 27 27 27 27 26 25 25 25 25 24 24
9 9 10 11 11 12 12 13 14 15 15 16 16 17 18 18 19 19 20 20 21 21 22 23 23 24 24 24 24 24 24 23 23 22 22 22 22 23 23 24 24 24 24 23 23 23 22 22 23 24 24 25 25 25 26 26 27 27 28 29 30 30 31 32 32 33 32 32 31 29 28 27 26 26 27 27 27 27 26 26 26 25 25 25 25 24
9 10 10 11 11 12 13 13 13 14 15 16 16 17 18 18 19 20 20 21 21 22 22 23 24 24 25 24 24 24 24 23 22 22 22 22 22 23 23 23 23 23 23 23 23 22 22 23 24 25 25 26 26 26 26 26 27 27 28 29 29 30 31 31 32 32 32 31 30 29 28 28 27 27 27 27 27 27 26 26 26 26 25 25 25 24
9 10 11 11 12 12 13 13 14 14 15 16 16 17 18 19 19 20 21 22 22 23 23 23 24 24 25 24 24 24 23 23 22 22 22 22 22 23 23 23 23 23 23 23 23 23 23 24 25 26 26 26 26 26 26 27 27 27 28 28 29 29 30 31 31 31 31 30 30 29 28 28 28 28 28 27 27 26 26 26 26 26 26 25 25 24
9 10 11 11 12 13 13 14 14 15 16 16 17 18 19 19 20 21 22 23 24 24 24 24 24 24 24 24 24 23 23 22 22 22 22 22 22 22 22 23 23 23 23 24 24 24 25 26 27 27 27 27 27 27 27 27 27 27 27 28 28 29 29 30 30 30 30 29 29 28 28 28 28 28 28 27 27 26 26 26 26 26 26 25 25 24
10 10 11 11 12 13 14 14 15 16 17 18 18 19 20 20 21 22 23 24 25 25 25 25 25 24 24 24 24 23 23 22 22 22 22 22 22 22 22 22 22 23 23 24 25 26 27 27 28 28 28 28 28 27 27 27 27 27 27 28 28 28 29 29 29 29 29 29 28 28 28 28 28 28 28 27 27 26 26 26 26 26 26 25 25 24
10 11 11 12 12 13 13 15 16 16 17 19 20 21 21 22 23 23 24 25 25 26 27 27 26 25 25 24 24 23 23 23 23 23 23 23 22 22 22 22 22 23 24 25 26 27 28 29 30 30 29 29 28 27 27 27 27 27 27 27 28 28 29 29 29 29 28 28 28 28 28 28 28 28 27 27 26 26 27 27 27 26 26 25 25 24
10 11 11 12 13 13 14 14 16 17 18 19 20 21 22 23 24 25 25 26 26 27 27 28 28 28 27 25 24 23 23 23 23 23 23 23 23 22 22 22 23 24 25 26 28 29 30 30 31 31 30 29 28 28 27 27 27 27 27 27 28 28 29 29 29 28 28 28 28 28 28 28 27 27 27 26 26 26 27 27 26 26 25 25 24 24
10 11 11 12 13 14 14 15 16 17 18 18 19 20 22 24 25 26 27 28 28 28 28 28 28 29 29 28 26 25 24 24 23 23 23 23 22 22 21 22 23 24 26 27 29 30 31 32 32 31 31 30 29 28 27 27 26 26 27 27 27 28 28 28 28 28 28 28 28 28 28 27 27 27 26 26 26 27 27 27 26 25 25 24 24 23
10 11 12 12 13 14 15 16 17 17 18 19 20 21 22 24 25 27 28 29 29 30 29 29 28 29 29 29 28 27 27 26 26 25 25 24 23 22 22 22 23 25 27 28 29 31 32 32 32 31 30 29 28 28 27 27 27 26 26 27 27 27 27 27 27 27 27 27 28 28 28 27 27 26 26 26 26 27 27 26 26 25 25 24 24 23
11 11 12 12 13 14 15 16 17 17 19 20 21 22 23 24 26 27 27 28 29 30 30 30 29 29 29 29 29 29 29 29 28 27 27 26 26 25 25 25 26 27 29 30 31 32 32 32 32 31 29 28 28 28 27 27 27 27 26 26 26 26 26 26 26 26 26 27 27 28 28 27 27 26 26 26 26 26 26 26 25 25 24 24 23 23
11 12 12 13 14 14 15 16 17 18 19 20 21 22 23 25 26 27 27 28 29 30 30 30 30 30 30 29 30 30 31 31 31 30 29 28 27 28 28 28 29 30 31 32 33 33 33 33 31 30 28 27 27 27 28 28 27 27 26 26 26 26 26 26 26 26 26 26 27 27 27 27 27 27 27 27 26 26 26 25 25 25 24 23 23 22
11 12 13 13 14 15 16 17 17 18 19 20 21 22 23 24 25 27 28 28 29 30 31 31 31 31 30 30 30 31 32 32 32 32 31 29 29 29 30 31 32 32 33 34 35 34 34 33 31 29 28 27 27 27 27 27 27 26 26 26 26 26 26 26 25 26 26 26 27 27 27 27 27 27 27 27 26 26 25 25 25 24 24 23 22 22
11 12 13 13 14 15 16 17 17 18 19 20 21 22 23 24 25 26 28 29 30 31 32 33 34 33 32 30 30 31 32 33 34 34 33 32 31 31 33 34 35 35 36 36 36 36 35 33 31 29 27 27 27 27 26 26 25 25 25 26 26 26 26 25 25 25 26 26 27 27 27 27 27 27 27 27 27 26 26 25 24 24 23 23 22 22
11 12 13 14 15 15 16 17 17 18 19 20 21 22 23 24 25 26 27 29 30 31 32 33 34 35 35 33 32 31 33 34 35 35 34 34 33 33 35 36 37 38 38 38 37 37 36 34 31 29 28 27 27 26 26 25 25 25 25 26 26 26 25 25 25 26 26 26 26 26 26 26 26 27 27 27 27 27 26 25 24 23 23 23 22 22
11 12 13 14 15 15 16 17 17 18 20 20 21 22 23 24 25 26 27 28 29 31 31 32 32 34 35 36 34 33 33 34 35 36 36 36 35 35 36 37 38 39 40 39 38 38 37 35 32 30 28 28 27 26 26 25 24 24 25 25 26 25 25 25 25 26 26 26 26 26 25 25 26 26 27 27 27 26 26 25 24 23 22 22 22 22
11 12 13 14 15 15 16 17 18 19 20 21 22 22 23 24 25 26 27 28 28 29 30 31 32 32 33 34 34 33 34 34 35 36 37 38 37 37 37 38 39 40 40 40 39 39 38 35 32 30 29 28 28 27 26 25 24 24 25 25 25 25 24 24 25 25 25 25 25 25 25 25 25 26 26 26 26 26 25 24 23 23 22 22 22 21
12 12 13 14 14 15 16 17 18 19 20 21 22 23 24 25 25 26 26 27 28 28 29 30 31 32 33 34 34 33 33 34 35 36 38 39 39 38 37 38 39 40 41 40 40 39 38 36 33 31 30 29 29 27 26 25 24 24 25 25 24 24 24 24 24 24 24 24 24 24 24 24 25 25 26 25 25 25 24 23 23 22 22 21 21 21
12 12 13 14 14 15 16 17 18 19 20 21 22 23 24 25 26 26 27 27 28 28 29 30 30 31 32 33 33 33 33 33 34 35 37 39 39 39 38 38 40 41 41 41 40 39 38 36 34 32 31 30 29 28 26 24 24 24 24 24 23 23 23 23 23 23 23 24 24 24 24 24 24 25 25 25 25 25 24 23 22 22 21 21 21 21
11 12 13 14 14 15 16 17 18 19 20 21 22 23 24 25 26 27 27 28 28 28 29 29 30 30 31 33 33 33 32 32 32 33 36 38 40 39 38 39 40 41 41 41 41 40 39 36 34 32 31 31 29 27 25 24 24 24 23 22 22 22 22 22 22 23 23 24 24 25 25 24 24 24 24 24 24 24 23 23 22 22 21 21 21 21
11 12 13 13 14 15 16 17 18 19 20 21 22 23 24 25 25 26 27 27 28 28 29 29 30 30 31 32 33 32 31 30 30 31 33 36 39 40 39 39 40 41 41 41 41 41 40 37 34 32 32 30 29 27 26 25 24 22 21 20 21 21 21 22 22 23 24 24 25 25 25 24 24 24 24 24 23 23 23 22 22 22 21 21 21 21
11 12 12 13 14 15 16 17 18 19 20 21 21 22 23 24 25 25 26 27 28 28 29 30 31 31 32 32 33 31 29 28 29 30 32 35 38 40 39 39 40 41 41 41 41 41 41 38 35 33 31 30 29 28 27 25 23 21 20 20 20 20 21 21 22 23 24 24 24 24 24 24 24 23 23 23 23 22 22 22 22 21 21 21 21 22
11 12 12 13 14 15 16 17 18 19 20 21 21 22 23 24 24 25 25 26 27 29 30 31 31 32 32 33 32 31 28 28 29 30 32 35 37 39 38 39 40 41 42 42 42 42 41 38 35 33 31 30 30 29 27 24 22 20 20 20 20 20 21 22 22 23 24 24 24 24 24 24 23 23 22 22 22 22 22 22 22 22 21 22 22 22
11 12 13 14 14 16 16 17 18 19 20 21 22 22 23 23 24 24 25 26 27 28 30 31 31 32 32 33 32 31 29 29 30 31 32 34 36 38 38 38 39 41 43 43 43 43 40 37 34 32 31 32 32 31 28 25 23 22 21 21 21 21 21 21 22 23 23 24 24 24 23 23 23 22 21 21 21 21 21 21 22 22 22 22 22 22
11 12 13 14 15 16 16 17 18 19 20 21 22 22 23 24 24 24 25 26 27 28 29 30 32 33 33 33 32 31 30 29 30 31 32 33 35 37 38 38 39 41 43 44 44 42 39 35 31 29 31 34 34 32 28 26 25 23 22 22 22 21 21 21 22 23 23 24 24 24 23 23 22 21 21 21 20 21 21 21 21 22 22 22 22 22
11 12 13 14 15 15 16 17 18 19 20 20 21 22 23 23 24 25 25 26 27 27 28 29 31 32 33 33 33 31 30 29 30 31 32 33 34 36 37 39 40 41 43 45 45 42 38 33 30 29 32 35 35 33 30 28 27 26 24 24 23 23 22 22 22 23 24 25 25 24 23 23 22 21 21 20 20 20 20 21 21 22 22 22 22 22
11 12 13 14 14 15 16 17 17 18 19 19 20 21 22 23 23 24 25 26 26 27 27 28 29 30 32 33 33 32 30 29 29 31 32 33 35 36 37 38 40 41 43 45 45 43 38 33 31 32 35 36 36 34 32 30 29 28 27 26 25 24 24 23 23 24 25 25 26 25 24 23 22 21 21 20 20 20 20 20 21 21 22 22 21 21
11 12 13 13 14 15 15 16 16 17 18 19 19 20 21 22 23 23 24 25 26 26 27 27 28 29 31 33 34 34 32 29 29 31 32 34 35 37 38 39 39 40 41 43 43 41 38 36 35 35 37 37 36 34 33 31 30 29 28 27 26 26 25 24 24 25 26 26 27 26 25 24 23 21 20 19 19 19 19 20 20 20 21 21 21 21
11 12 13 13 14 14 15 15 16 17 17 18 19 20 21 22 23 23 24 24 25 25 26 27 27 28 29 31 33 33 32 30 29 31 32 33 35 37 38 39 39 39 38 38 37 36 37 38 39 39 39 38 36 34 32 31 30 29 29 28 28 27 27 26 26 27 28 28 27 27 25 24 23 22 20 19 19 19 19 19 19 19 20 20 20 20
12 12 13 13 13 14 15 15 16 17 18 19 20 21 22 22 23 23 23 24 24 25 25 26 27 27 28 29 30 30 31 30 30 31 32 33 35 36 37 38 39 39 37 35 33 31 32 35 39 41 40 39 37 34 32 30 29 29 29 29 28 28 28 28 28 29 29 29 28 27 26 25 24 22 21 19 18 18 18 18 18 18 18 19 20 20
12 12 13 13 14 14 15 16 18 19 19 20 21 21 22 22 23 23 23 23 24 24 25 26 26 27 28 28 28 29 29 29 29 30 31 32 34 36 37 37 38 38 38 36 33 30 30 33 38 40 40 38 36 34 32 30 28 28 28 28 29 29 29 29 30 29 29 29 28 27 26 25 25 23 21 20 19 18 18 17 16 16 17 18 19 19
12 12 12 13 14 15 16 17 18 19 20 21 21 21 22 22 22 22 22 23 23 23 24 25 26 27 28 29 29 28 28 28 28 29 30 31 33 35 36 37 37 38 38 37 36 34 33 34 36 37 37 36 34 32 31 29 28 27 27 28 29 29 30 30 30 30 29 28 27 27 27 26 25 24 23 21 21 20 18 17 16 16 16 16 17 18
12 12 13 14 15 16 17 17 18 19 20 20 21 21 21 21 21 21 21 22 22 23 24 25 25 26 27 28 29 29 29 28 28 29 30 30 32 34 35 36 36 36 36 36 36 36 36 37 36 35 35 36 34 31 29 28 27 27 27 27 28 29 30 30 30 29 29 28 27 27 27 26 26 25 24 23 22 21 20 18 17 17 16 16 16 17
12 13 14 15 15 16 17 17 18 19 19 20 20 20 20 20 20 21 21 21 22 22 23 24 25 26 26 27 28 29 29 29 29 30 30 30 30 32 33 34 34 34 35 35 35 36 37 37 36 35 34 34 33 32 29 28 27 27 28 28 29 29 29 29 29 29 28 28 27 27 27 27 26 25 24 23 23 22 21 20 19 18 18 17 17 16
13 14 14 15 16 16 17 18 18 19 20 20 20 20 20 20 20 20 21 21 22 22 23 24 25 26 26 26 27 28 29 30 31 30 30 29 29 30 31 32 33 32 32 33 34 35 36 36 36 35 33 32 32 31 30 29 29 29 29 29 30 30 29 29 28 28 27 27 27 27 27 27 26 26 25 24 23 23 22 21 21 20 20 19 18 18
13 14 15 15 16 17 17 18 19 20 20 20 20 20 20 20 20 21 21 21 22 23 24 25 25 26 26 26 26 27 28 30 30 30 29 28 28 28 28 30 31 30 30 30 32 33 33 34 34 34 32 31 29 28 28 29 30 30 30 30 30 29 29 28 28 27 27 27 27 27 27 27 27 27 26 25 25 24 24 23 23 22 22 21 20 19
13 14 15 16 16 17 18 19 20 20 20 20 20 20 20 20 20 21 21 22 22 23 24 25 25 26 26 26 26 27 27 28 29 29 28 27 27 26 26 28 29 29 29 29 30 30 30 30 30 30 29 29 27 27 26 27 28 30 31 31 31 30 29 28 27 27 26 27 27 28 28 28 28 27 27 26 26 26 26 25 25 24 24 23 23 21
13 14 15 16 16 17 18 19 20 20 20 20 20 20 21 21 21 21 21 22 22 23 24 25 25 26 26 26 27 27 27 27 28 28 27 26 26 25 25 26 27 28 28 28 28 27 27 26 25 23 23 23 24 25 26 27 27 29 30 31 32 31 29 28 27 26 26 26 27 28 29 29 29 28 27 27 26 26 26 26 26 25 25 24 24 23
13 14 15 15 16 17 18 19 20 20 20 21 21 21 21 21 21 21 21 22 23 23 24 25 25 26 26 27 27 28 28 28 27 27 26 25 25 24 24 24 25 26 27 26 25 23 21 20 19 18 18 19 21 24 25 26 27 28 29 29 30 30 29 27 26 26 26 27 27 28 29 30 30 29 28 27 26 26 26 26 26 25 25 24 23 22
13 14 15 16 17 18 18 19 20 20 20 20 21 21 22 22 23 23 23 23 24 25 25 26 27 28 28 28 29 29 28 28 27 27 26 25 24 24 24 24 24 25 25 24 22 19 16 14 14 15 16 18 20 23 25 27 27 27 27 28 29 29 28 27 26 26 27 28 28 29 29 30 31 30 29 27 26 26 26 26 25 25 24 23 22 21
13 14 15 16 17 18 19 19 20 20 20 20 21 21 22 23 23 23 24 25 25 26 27 28 29 30 31 31 31 31 30 29 28 27 25 24 24 24 24 24 24 23 23 22 20 17 14 13 13 14 16 17 19 22 25 27 28 28 27 26 27 28 28 28 28 28 28 29 29 30 30 31 31 30 29 27 26 26 25 25 25 24 24 23 22 20
13 15 16 17 17 18 19 19 20 20 20 20 21 21 22 22 23 24 25 25 26 27 28 29 30 31 32 33 33 33 32 30 29 27 25 24 24 24 25 24 24 22 21 19 18 16 15 14 14 15 16 18 20 22 24 26 28 28 27 26 26 26 26 27 29 30 30 30 30 30 30 30 31 30 29 28 26 25 25 25 25 24 23 22 21 20
14 15 16 17 18 18 19 19 20 20 20 20 21 21 22 22 23 24 25 26 27 27 29 30 32 33 34 34 34 34 34 32 30 28 26 25 25 24 25 25 24 22 20 17 15 14 14 15 15 17 18 19 20 21 23 25 27 27 27 26 26 26 26 27 29 30 31 31 31 31 30 30 30 31 30 29 27 26 25 25 24 24 23 22 21 20
14 15 16 17 17 18 19 19 20 20 20 20 21 21 22 22 23 24 25 26 27 28 29 31 32 34 34 35 35 35 34 33 31 29 28 27 26 25 25 25 24 22 20 17 14 13 12 14 15 18 19 20 21 22 23 24 26 27 28 28 28 28 28 29 30 30 31 31 31 31 30 30 30 31 30 29 28 26 24 24 23 23 22 21 20 19
15 16 16 17 17 18 19 19 19 20 20 20 21 21 22 23 23 24 25 26 27 28 30 31 32 33 34 34 34 34 33 33 31 30 29 28 27 26 26 25 24 22 20 17 15 13 12 13 15 17 19 21 22 23 24 24 25 27 28 29 29 30 31 30 30 31 31 31 31 30 30 30 30 30 30 29 28 25 23 22 21 21 20 20 20 19
15 16 16 17 17 18 19 19 20 20 20 20 20 21 22 23 24 25 25 26 27 29 30 32 33 34 34 34 33 33 32 31 30 29 29 28 27 27 27 26 25 23 21 18 16 14 13 13 14 16 17 19 21 23 25 25 26 27 28 29 30 31 32 31 31 31 31 31 30 30 30 30 30 30 30 29 28 26 23 21 20 19 19 19 19 19
15 16 16 17 17 18 19 19 20 20 20 21 21 21 22 23 24 25 26 27 28 30 31 33 34 34 34 34 33 32 31 29 28 28 28 27 27 27 27 27 26 25 23 22 19 17 14 13 14 15 17 18 20 23 25 26 27 28 29 29 30 31 32 32 31 31 31 31 30 30 29 29 29 29 28 28 27 25 22 20 19 19 19 20 20 19
15 15 16 17 17 18 19 19 20 20 21 21 21 22 22 23 23 24 25 26 28 30 31 33 34 34 34 34 33 31 30 29 28 27 27 27 26 26 26 27 27 27 27 26 24 21 19 16 15 15 16 18 20 22 25 27 28 29 29 30 30 31 32 32 32 31 31 31 30 30 30 30 29 28 27 26 25 23 21 19 19 20 20 21 21 20
14 15 16 16 17 18 19 19 20 20 21 21 22 22 23 23 24 24 25 27 28 30 31 32 33 34 34 33 32 30 29 27 27 26 26 25 25 25 25 26 27 28 30 30 29 27 25 23 20 17 16 18 20 22 24 27 28 30 30 31 31 31 31 32 32 31 31 31 30 30 30 29 28 27 26 25 23 21 20 19 19 20 21 22 21 20
Wind_Direction
308 312 316 320 323 325 326 328 331 334 337 339 341 343 343 343 342 341 341 340 340 339 338 338 337 337 337 338 338 337 337 337 336 335 334 333 333 333 333 333 332 332 331 329 328 326 325 324 323 323 323 324 324 324 325 324 324 324 324 323 323 322 322 321 320 320 320 320 320 320 320 319 317 315 313 312 310 309 308 309 310 312 312 312 312 311
310 314 317 321 324 327 329 331 334 337 340 341 342 342 343 342 342 341 340 340 340 339 339 339 339 339 339 339 339 339 338 337 337 336 335 335 335 335 335 334 334 333 332 331 330 329 328 328 328 328 329 329 329 329 328 327 327 326 326 325 324 323 322 321 321 320 320 320 320 321 320 319 317 315 314 312 311 311 312 313 313 313 313 312 311 311
312 316 319 323 327 330 333 335 337 339 340 341 341 342 342 342 341 340 340 340 340 340 341 341 341 341 342 342 342 341 340 338 338 337 337 337 337 337 336 336 336 335 335 334 333 333 333 333 334 334 335 334 334 333 332 330 329 328 327 326 325 324 323 322 322 321 321 321 321 321 320 319 318 316 315 313 313 314 314 314 314 313 313 312 312 311
316 320 324 328 332 334 336 337 338 340 340 341 341 341 342 342 341 340 340 340 341 342 343 343 344 344 344 344 343 342 341 340 339 339 339 339 339 338 338 337 337 337 338 337 337 337 338 339 340 340 340 340 338 336 334 333 331 330 328 327 326 325 324 324 323 322 322 322 321 321 321 320 318 317 315 314 314 315 315 315 315 314 314 313 312 311
321 325 328 331 334 335 336 338 339 340 340 340 341 341 341 341 340 340 340 341 343 344 345 346 346 346 346 346 345 344 342 341 341 341 341 341 340 340 338 338 339 340 341 341 342 342 343 344 345 345 344 343 341 339 336 334 333 331 329 328 327 326 326 325 324 323 323 323 322 322 322 321 319 317 315 315 315 315 316 315 315 315 314 313 312 311
325 328 331 333 334 335 336 337 338 339 340 340 341 341 341 340 341 341 342 343 345 346 347 349 349 349 348 347 346 345 343 342 342 343 344 344 343 341 340 339 340 342 344 345 346 346 347 348 348 348 347 345 343 341 338 336 334 332 330 328 328 327 327 326 326 325 324 324 324 323 322 321 319 317 316 315 315 316 316 316 316 315 313 312 312 312
328 330 332 334 335 336 337 338 339 339 340 341 341 340 341 341 342 343 344 346 346 347 348 350 351 351 350 348 347 346 345 344 344 345 346 346 345 342 340 340 342 344 347 348 349 349 350 350 350 349 348 346 344 342 339 337 334 332 330 329 329 329 329 328 327 327 327 327 326 324 322 320 318 317 317 317 317 317 316 316 314 313 312 312 312 313
330 331 333 336 337 338 338 339 340 341 342 342 341 340 340 341 343 345 346 347 347 348 349 350 351 351 351 349 348 347 346 346 346 348 349 349 347 344 341 341 343 347 349 350 351 351 351 350 350 349 348 346 345 343 340 338 335 333 332 331 330 330 330 329 328 328 329 328 326 324 322 320 319 318 318 318 318 317 316 315 313 312 311 312 313 313
330 332 334 336 338 339 339 339 341 343 344 344 343 342 342 342 343 345 347 348 349 349 349 349 350 350 350 350 349 348 348 348 349 350 352 351 349 346 344 344 346 349 351 352 352 352 351 350 350 349 348 347 345 343 341 338 336 335 333 332 331 331 330 329 329 328 328 327 326 324 322 321 320 319 319 319 319 318 316 314 313 312 313 313 314 314
330 334 337 338 338 340 340 342 343 345 346 346 345 344 343 344 345 345 346 348 349 349 350 350 350 349 349 350 350 350 350 350 351 353 354 353 351 348 346 346 349 351 353 354 353 352 351 350 349 349 348 347 345 344 342 340 338 336 335 333 332 330 329 328 327 326 325 324 324 323 322 322 321 320 320 320 319 318 316 314 314 314 314 314 314 313
331 335 338 339 339 340 343 344 345 346 347 347 346 346 345 346 347 347 347 348 348 349 350 350 351 350 350 350 350 350 350 351 352 353 355 355 353 350 349 349 351 353 354 355 354 353 352 351 350 349 348 347 345 344 342 341 339 338 336 334 332 330 328 326 324 323 323 322 322 323 323 323 323 322 321 320 319 318 317 316 316 316 315 314 313 313
333 336 338 340 341 343 345 346 347 346 346 346 346 347 348 349 349 349 349 348 348 348 348 350 351 352 352 351 350 350 351 351 351 352 355 356 355 352 351 352 354 355 355 355 355 354 352 351 350 349 347 346 345 344 343 342 341 340 337 334 331 328 326 323 322 322 321 321 322 323 325 325 325 324 323 321 320 319 319 319 318 317 316 315 314 314
335 338 340 341 343 345 347 347 347 346 346 346 348 350 351 351 350 350 349 348 348 347 347 348 350 352 354 353 352 351 351 350 350 351 354 357 356 354 353 354 355 356 356 356 356 355 354 352 350 349 347 346 345 344 344 344 343 341 338 334 331 328 325 323 322 321 321 322 323 324 326 327 326 324 323 322 321 321 321 321 320 319 318 317 317 316
338 340 342 343 345 346 347 348 347 347 348 349 351 352 352 352 351 350 348 348 347 347 347 347 349 352 355 356 355 352 351 349 348 349 352 357 358 356 354 354 355 356 356 356 356 356 355 353 351 349 347 345 345 345 345 344 343 341 337 334 331 328 325 323 322 322 322 323 325 326 327 327 326 325 324 323 323 323 323 322 321 321 320 319 319 318
340 342 344 345 346 347 348 348 349 349 350 351 353 353 353 352 351 349 348 348 347 347 347 347 348 351 356 358 356 353 350 348 346 347 350 357 360 358 354 353 354 356 356 356 355 355 355 354 351 349 347 346 345 346 345 345 343 341 338 335 331 328 326 324 323 323 324 325 327 328 328 327 326 325 325 325 324 324 324 323 323 322 321 321 320 318
341 344 346 346 346 348 348 349 349 350 352 353 354 354 353 352 351 350 349 348 348 348 348 348 348 350 354 358 358 354 350 347 345 345 348 355 359 359 355 353 353 354 355 355 355 355 355 354 352 350 348 347 347 346 346 345 345 343 341 337 333 329 327 325 325 325 325 326 328 329 329 328 328 327 327 327 327 326 326 325 325 324 323 322 320 319
343 345 346 347 347 348 348 349 350 351 353 354 355 354 353 352 351 350 350 349 349 349 349 349 349 349 350 355 357 355 350 347 345 345 347 353 358 358 356 353 352 352 353 354 354 354 354 354 353 351 350 349 348 348 348 348 348 346 343 339 334 331 329 327 326 326 326 327 328 329 330 330 330 329 329 329 329 328 328 327 327 326 325 323 322 321
344 346 348 348 348 348 348 349 351 352 353 354 354 354 353 352 352 351 351 350 349 349 349 349 349 349 348 352 355 354 350 347 345 344 346 351 356 358 355 352 350 350 351 352 353 354 354 354 353 352 351 351 351 351 351 351 351 348 344 338 334 331 330 328 327 326 326 327 329 330 331 331 331 331 330 330 330 329 328 328 327 327 326 325 324 323
345 347 349 349 348 348 348 350 352 353 354 354 353 353 353 353 352 352 351 350 350 349 348 348 349 349 348 350 352 353 350 348 345 344 345 349 354 356 354 351 348 348 349 351 352 353 353 354 354 353 353 353 354 355 355 355 352 347 341 336 333 330 329 328 326 326 327 328 330 332 332 332 331 331 330 330 330 329 329 328 328 327 327 326 326 325
346 348 349 349 349 349 349 351 353 354 355 354 353 353 353 352 352 351 351 350 349 349 348 348 348 348 348 350 352 352 350 348 347 345 345 347 352 354 352 349 346 346 348 350 352 353 353 353 353 354 354 355 357 358 358 355 350 343 337 332 330 328 328 327 326 327 330 332 333 333 333 332 331 331 330 330 329 329 329 329 329 328 327 326 326 326
348 348 348 349 349 350 351 352 354 355 355 355 354 353 352 352 351 351 350 349 348 348 348 348 348 348 348 349 351 353 351 350 347 345 343 345 349 352 351 347 345 345 346 349 351 352 353 353 353 354 356 358 359 359 356 352 344 337 332 329 328 328 328 328 329 330 334 335 335 334 333 332 331 331 330 330 329 329 330 330 329 329 328 328 327 325
348 347 347 348 350 351 352 354 355 355 355 355 354 353 352 351 350 350 349 348 347 347 347 347 347 348 349 350 352 354 352 351 347 344 342 342 345 348 349 346 345 344 345 348 350 351 352 353 354 356 358 359 359 357 353 346 338 333 331 330 331 332 332 332 333 334 336 335 334 333 333 333 332 331 331 331 331 332 333 333 332 332 332 330 328 324
348 347 347 348 350 352 353 355 356 356 355 355 354 353 351 350 349 348 347 346 346 345 345 346 347 349 350 351 353 355 354 351 347 345 342 340 342 346 348 346 344 344 345 347 349 350 351 353 355 357 359 359 357 353 347 341 336 334 336 337 338 338 337 337 337 336 336 335 334 335 335 335 334 333 333 333 334 335 336 336 336 336 335 333 328 324
348 347 348 349 351 353 354 355 356 356 355 355 354 353 352 350 349 348 346 345 344 344 345 346 347 349 350 352 354 356 354 350 347 346 344 341 342 345 347 346 344 343 344 347 348 349 351 353 356 358 359 357 353 348 344 342 342 345 347 346 343 340 338 336 336 336 336 337 337 338 338 338 337 336 336 336 337 338 339 339 340 339 337 333 328 325
348 348 349 351 353 354 355 356 356 356 355 354 353 352 351 350 348 347 346 345 344 344 345 345 347 348 350 352 354 356 354 351 349 348 346 343 342 343 346 345 343 343 344 346 348 349 351 354 356 358 357 353 349 347 347 350 354 356 353 348 343 339 337 336 336 338 339 341 342 342 342 342 341 340 339 340 340 341 341 342 342 341 336 332 329 328
348 349 351 353 354 355 356 356 356 356 355 354 353 351 350 348 347 346 346 345 345 345 345 345 347 348 349 351 353 355 355 352 351 350 347 343 341 342 345 346 345 344 345 346 348 349 352 354 356 355 352 349 348 350 354 358 1 359 353 347 343 341 340 340 340 341 343 345 346 346 346 345 344 343 343 343 343 343 344 345 344 341 336 332 331 334
350 352 353 354 355 356 356 356 356 356 355 353 351 350 348 347 347 346 346 346 346 346 346 346 347 347 348 350 352 355 356 355 353 350 347 344 341 341 344 346 346 346 346 346 348 349 351 353 353 351 347 347 350 355 360 3 3 359 353 348 346 346 347 346 346 346 348 349 350 350 349 348 347 347 346 346 345 345 346 346 345 340 336 334 336 340
352 353 355 355 356 356 356 356 356 355 353 352 350 348 347 347 346 347 347 347 347 347 347 348 348 348 348 348 350 354 358 358 354 349 347 344 342 343 345 347 348 348 347 346 347 349 351 352 350 346 344 347 352 358 2 3 2 358 354 352 353 355 355 352 351 350 352 352 352 352 352 351 350 349 349 348 347 347 348 348 345 341 338 338 342 346
354 355 355 356 356 356 356 356 355 354 352 350 348 347 347 347 347 347 347 347 347 348 349 350 350 349 347 346 349 354 0 360 354 348 346 345 344 345 347 349 350 350 348 346 346 347 348 349 347 344 344 348 353 359 2 2 1 358 355 355 358 1 360 356 353 353 355 355 354 354 355 355 354 353 352 350 350 349 350 349 347 343 341 343 346 349
355 355 356 356 356 356 356 355 354 352 351 349 348 348 348 348 348 348 348 347 348 349 350 351 351 350 349 348 349 353 359 360 354 349 347 346 346 346 348 349 351 351 350 347 345 344 343 345 345 345 345 349 354 358 0 1 359 357 356 358 1 3 2 359 356 356 357 357 357 357 358 359 359 358 356 355 353 352 352 351 349 346 345 346 349 351
355 356 356 356 356 355 354 354 353 352 351 350 350 349 349 349 349 349 349 348 349 350 351 352 352 352 352 351 349 350 353 357 355 350 349 347 346 347 349 349 350 351 351 348 344 340 337 339 342 345 347 349 352 355 358 359 358 357 356 358 1 3 4 1 359 359 0 360 359 360 1 3 4 4 3 1 358 356 354 353 351 349 348 349 350 352
356 356 356 355 354 353 353 353 353 353 353 352 352 351 351 351 350 350 350 350 350 351 352 353 354 354 353 353 350 349 353 357 355 352 350 348 346 347 348 349 349 349 350 347 343 337 332 332 336 341 345 348 350 353 357 358 358 357 357 358 360 2 5 4 2 1 2 1 2 3 5 7 8 9 9 8 5 1 358 356 355 353 353 352 352 352
356 355 354 353 352 353 354 355 355 354 354 353 353 352 352 352 351 350 350 350 351 353 354 354 355 354 354 353 352 353 357 358 356 353 351 348 347 346 348 349 349 348 347 345 342 337 331 329 332 336 340 344 348 351 355 356 357 358 359 358 359 1 4 5 4 2 2 2 4 6 8 10 12 13 14 15 13 9 5 3 1 360 358 356 354 353
354 353 352 352 354 356 357 357 356 355 354 353 353 352 352 351 350 350 350 351 353 354 355 356 356 355 354 353 353 355 359 360 358 355 353 350 347 346 347 348 348 347 344 342 340 337 333 332 332 333 335 339 345 350 354 356 357 359 1 0 360 1 4 5 4 3 3 4 5 7 10 12 14 16 17 18 18 17 15 13 12 9 6 2 358 355
352 352 352 354 356 358 358 358 357 356 354 353 352 352 351 351 350 350 351 352 354 355 357 357 357 357 356 354 353 354 357 358 358 356 355 352 349 346 346 346 347 345 342 339 338 336 333 333 333 333 333 335 340 347 354 357 358 360 2 3 3 3 5 5 4 3 4 5 6 8 11 12 14 16 18 20 20 20 20 20 19 17 15 11 6 1
352 352 354 356 357 358 358 358 357 356 355 354 353 352 351 350 350 351 352 354 355 356 358 359 359 359 358 356 354 354 355 356 357 357 356 354 350 346 343 343 345 344 340 337 335 334 332 331 332 333 333 333 336 343 352 358 0 1 2 4 5 6 6 6 5 4 4 5 6 8 11 12 14 16 18 20 22 23 23 23 23 21 19 18 14 9
354 354 356 357 357 357 357 357 357 356 355 354 353 352 351 351 351 352 354 355 356 357 359 0 1 1 1 359 357 356 355 356 357 357 357 355 352 347 341 341 342 341 338 335 333 332 331 330 330 331 332 333 335 339 347 355 359 0 1 3 4 5 6 7 7 6 5 5 6 8 10 12 13 16 18 20 22 23 25 25 25 23 21 20 19 16
356 356 356 356 357 357 357 357 357 356 355 354 353 352 351 351 352 354 355 356 357 358 359 1 2 3 3 2 360 358 357 357 357 357 357 356 352 347 341 338 338 337 335 333 330 329 329 328 328 328 330 333 337 342 347 352 354 356 358 2 4 5 6 7 7 7 6 7 8 9 11 12 14 15 17 19 20 21 22 23 24 23 21 20 19 18
357 357 356 356 357 357 357 357 357 356 355 353 352 352 352 352 354 355 357 357 358 359 0 2 3 4 4 3 2 0 359 358 357 357 356 355 352 347 341 336 334 333 332 330 328 326 326 326 325 326 328 331 338 347 353 355 354 354 355 358 2 5 7 7 7 7 8 8 9 9 11 13 14 15 16 17 18 18 18 20 21 21 19 17 16 15
358 357 357 357 358 358 358 357 356 355 354 353 352 351 352 353 355 357 358 358 359 359 1 2 3 5 5 5 4 2 1 359 358 358 357 355 352 347 341 336 332 330 329 328 327 326 325 324 325 327 330 334 339 346 353 356 357 356 353 352 354 358 4 6 7 8 10 10 9 9 9 11 12 14 15 17 18 18 17 17 18 18 18 16 15 13
358 358 358 358 359 359 358 357 356 355 354 353 352 352 353 354 355 356 358 358 359 359 0 1 2 4 5 5 5 4 2 1 360 359 358 355 351 346 342 338 335 332 330 329 329 331 331 330 331 334 339 342 346 350 354 357 358 357 354 350 350 353 360 5 8 10 12 12 12 10 9 9 10 13 15 17 19 19 18 16 15 15 17 17 16 14
358 358 358 360 0 360 358 357 356 355 355 354 353 354 354 355 355 356 356 357 358 359 360 1 1 2 3 4 5 4 4 3 2 0 358 355 351 347 345 344 343 340 337 335 336 339 344 347 348 349 350 351 351 352 355 358 0 359 356 351 349 352 359 7 13 15 13 13 13 12 10 9 10 12 15 17 19 19 19 18 16 14 14 16 17 16
359 359 360 0 360 359 358 356 356 355 355 355 355 355 356 356 356 357 357 358 359 0 1 1 2 2 2 2 3 4 4 4 3 2 359 356 353 350 350 350 351 350 347 344 344 349 358 5 6 3 2 0 357 353 353 356 358 358 357 354 351 349 352 1 10 15 15 14 13 12 10 9 9 12 14 17 18 19 19 18 17 16 16 16 17 18
359 0 1 0 359 358 356 356 356 356 356 356 356 356 357 357 358 358 359 360 1 2 2 2 2 1 1 1 1 2 3 4 4 3 0 358 355 354 355 357 359 359 356 353 352 355 3 11 15 14 13 9 3 358 355 356 356 356 357 357 356 354 353 359 6 11 12 14 13 12 10 9 9 11 15 17 19 19 18 17 16 17 17 18 18 18
1 1 1 359 357 356 356 356 357 357 357 357 357 357 357 358 359 359 360 1 2 3 3 2 2 1 1 1 1 1 2 3 3 2 1 360 358 358 360 3 5 6 4 3 3 4 8 11 14 17 19 16 10 4 360 358 357 356 357 0 3 4 5 8 9 9 8 10 11 11 11 10 10 11 13 16 18 20 19 17 16 16 16 17 17 17
2 1 360 358 356 355 355 356 356 357 358 358 358 357 358 359 360 1 2 2 3 3 4 3 3 2 2 1 1 1 1 2 2 2 1 1 0 1 3 7 10 12 12 13 15 17 18 17 16 16 16 15 13 11 7 2 359 359 3 6 8 9 10 12 11 9 7 7 8 9 11 11 11 10 10 12 16 19 21 19 17 16 16 16 16 15
2 360 358 355 355 354 354 355 356 357 359 359 359 359 358 359 0 2 3 3 4 4 4 4 3 3 2 2 1 1 1 0 0 0 1 2 2 2 4 8 13 18 22 25 27 27 25 24 23 20 16 12 9 9 10 8 5 5 7 10 11 11 11 11 11 10 9 8 8 9 11 11 10 8 9 11 14 18 21 22 20 18 16 15 14 14
1 358 355 354 354 354 354 355 356 357 358 359 360 360 0 0 1 2 3 4 5 4 4 3 3 3 3 3 3 2 1 0 360 360 1 2 2 3 4 7 13 21 30 37 41 40 35 30 27 24 20 14 9 8 9 11 11 11 12 12 12 11 10 10 10 10 9 9 9 10 11 9 7 5 6 8 12 16 21 23 22 20 18 17 17 16
359 356 354 353 353 354 354 355 357 357 358 359 359 1 1 2 2 3 4 5 5 5 4 3 2 3 3 3 3 2 2 1 1 1 2 3 3 4 4 6 11 20 30 39 47 53 52 45 37 30 25 18 12 10 11 14 16 17 16 14 12 9 8 9 10 10 10 10 11 11 11 9 7 5 4 5 9 15 21 24 23 22 22 23 22 21
356 353 352 353 353 354 355 356 357 358 358 358 359 0 1 2 3 4 5 6 6 6 5 4 3 3 3 3 3 3 2 2 1 2 3 4 5 5 6 7 11 19 27 33 42 50 55 57 52 42 33 24 16 12 12 15 18 20 20 17 13 10 8 8 9 9 9 9 10 11 10 9 8 7 6 6 9 15 22 25 25 23 25 28 29 28
353 351 352 353 354 355 357 357 358 358 358 358 359 360 1 2 3 5 6 6 6 6 5 4 3 3 3 4 4 4 3 3 2 3 5 5 6 8 9 10 15 21 25 27 30 35 39 42 44 45 43 33 25 19 14 14 16 17 17 17 15 12 9 9 9 10 10 9 10 10 9 7 7 7 9 10 13 18 24 27 27 26 26 30 32 34
Height
1504 1503 1502 1502 1501 1501 1500 1499 1499 1498 1497 1496 1495 1494 1493 1492 1491 1490 1489 1488 1486 1485 1484 1483 1481 1480 1478 1476 1475 1473 1471 1470 1468 1467 1465 1464 1462 1461 1460 1458 1456 1455 1454 1452 1450 1449 1447 1445 1444 1442 1440 1438 1437 1435 1433 1431 1430 1428 1427 1425 1424 1422 1421 1419 1418 1416 1415 1413 1411 1410 1409 1408 1407 1406 1405 1404 1402 1400 1399 1398 1396 1395 1395 1394 1393 1392
1503 1502 1502 1501 1501 1500 1499 1499 1498 1497 1496 1495 1494 1493 1492 1491 1490 1490 1488 1487 1486 1485 1483 1482 1480 1479 1477 1475 1474 1472 1470 1469 1467 1466 1465 1463 1462 1460 1459 1457 1455 1454 1453 1451 1449 1448 1446 1444 1442 1440 1439 1437 1435 1433 1432 1430 1429 1427 1425 1424 1422 1421 1419 1418 1416 1414 1413 1411 1410 1409 1407 1406 1405 1404 1403 1402 1400 1399 1397 1396 1395 1394 1393 1393 1392 1390
1502 1502 1501 1501 1500 1499 1499 1498 1497 1496 1495 1494 1493 1493 1492 1491 1490 1489 1488 1487 1485 1484 1482 1481 1479 1478 1476 1475 1473 1471 1470 1468 1467 1465 1464 1462 1461 1460 1458 1456 1455 1453 1452 1450 1448 1446 1445 1443 1441 1439 1437 1435 1434 1432 1430 1429 1427 1426 1424 1423 1421 1420 1418 1416 1415 1413 1411 1410 1408 1407 1406 1405 1404 1402 1401 1400 1398 1397 1396 1395 1394 1393 1392 1391 1390 1389
1502 1501 1500 1500 1499 1499 1498 1497 1496 1495 1494 1493 1493 1492 1491 1490 1489 1488 1487 1486 1485 1483 1482 1480 1478 1476 1475 1473 1472 1470 1469 1467 1466 1465 1463 1462 1460 1459 1457 1455 1454 1452 1451 1449 1447 1445 1444 1442 1440 1438 1436 1435 1433 1431 1430 1428 1426 1425 1423 1422 1420 1418 1417 1415 1413 1411 1410 1408 1407 1405 1404 1403 1402 1400 1399 1398 1396 1395 1394 1393 1392 1391 1390 1390 1389 1387
1501 1500 1500 1499 1499 1498 1497 1496 1495 1495 1494 1493 1492 1491 1490 1489 1488 1487 1486 1485 1484 1482 1481 1479 1477 1475 1474 1472 1471 1470 1468 1467 1465 1464 1463 1461 1460 1458 1456 1455 1453 1452 1450 1448 1446 1445 1443 1441 1439 1437 1435 1434 1432 1430 1428 1427 1425 1424 1422 1420 1419 1417 1415 1414 1412 1410 1408 1407 1405 1404 1403 1401 1400 1399 1397 1396 1395 1394 1393 1392 1391 1390 1389 1388 1387 1386
1500 1500 1499 1499 1498 1497 1496 1495 1495 1494 1493 1492 1491 1490 1490 1489 1487 1486 1485 1484 1482 1481 1480 1478 1476 1475 1473 1471 1470 1469 1468 1466 1465 1463 1462 1460 1459 1457 1455 1454 1452 1451 1449 1448 1446 1444 1442 1440 1438 1436 1434 1433 1431 1429 1427 1426 1424 1423 1421 1419 1418 1416 1414 1413 1411 1409 1407 1406 1404 1403 1401 1400 1399 1397 1396 1395 1393 1392 1391 1390 1389 1388 1387 1386 1385 1384
1500 1499 1499 1498 1497 1496 1495 1495 1494 1493 1492 1491 1490 1490 1489 1488 1486 1485 1484 1482 1481 1480 1479 1477 1476 1474 1472 1471 1470 1468 1467 1465 1464 1463 1461 1460 1458 1456 1455 1453 1452 1450 1449 1447 1445 1443 1441 1439 1437 1435 1433 1431 1430 1428 1426 1425 1423 1421 1420 1418 1416 1415 1413 1411 1410 1408 1406 1405 1403 1402 1400 1399 1397 1396 1394 1393 1392 1390 1390 1389 1388 1387 1385 1384 1383 1382
1499 1499 1498 1497 1496 1495 1495 1494 1493 1492 1491 1490 1489 1488 1487 1486 1485 1484 1483 1481 1480 1478 1477 1476 1475 1474 1472 1470 1469 1468 1466 1465 1463 1461 1460 1459 1457 1456 1454 1453 1451 1450 1448 1446 1444 1442 1440 1438 1436 1434 1432 1430 1429 1427 1425 1423 1422 1420 1418 1417 1415 1414 1412 1410 1409 1407 1405 1404 1402 1400 1399 1397 1396 1394 1393 1391 1390 1389 1388 1387 1386 1385 1384 1382 1381 1381
1498 1498 1497 1496 1496 1495 1494 1493 1492 1491 1490 1489 1488 1487 1486 1485 1484 1483 1481 1480 1478 1477 1475 1474 1473 1472 1471 1470 1469 1467 1465 1464 1462 1460 1459 1457 1456 1455 1453 1452 1450 1449 1447 1445 1443 1441 1439 1437 1435 1433 1431 1429 1427 1425 1424 1422 1420 1419 1417 1415 1414 1412 1411 1409 1408 1406 1404 1403 1401 1400 1398 1396 1395 1393 1391 1390 1389 1388 1386 1385 1384 1383 1382 1381 1380 1379
1498 1497 1496 1496 1495 1494 1494 1492 1491 1490 1490 1489 1487 1486 1485 1484 1482 1481 1480 1479 1477 1476 1474 1473 1471 1470 1469 1469 1468 1466 1465 1463 1462 1460 1459 1457 1455 1454 1452 1451 1449 1448 1446 1444 1442 1440 1438 1436 1434 1432 1430 1428 1426 1424 1422 1420 1419 1417 1415 1414 1413 1411 1410 1408 1406 1405 1403 1402 1400 1398 1397 1395 1393 1391 1390 1389 1388 1386 1385 1383 1382 1381 1380 1379 1378 1377
1497 1497 1496 1495 1495 1494 1493 1492 1491 1490 1489 1488 1487 1486 1484 1483 1481 1479 1477 1476 1475 1474 1473 1472 1470 1469 1467 1466 1465 1465 1464 1462 1461 1460 1459 1457 1455 1454 1452 1450 1449 1447 1445 1443 1441 1439 1436 1435 1432 1430 1428 1426 1425 1423 1421 1419 1417 1416 1414 1413 1411 1410 1409 1407 1405 1404 1402 1401 1399 1397 1395 1394 1392 1390 1389 1387 1386 1385 1383 1382 1380 1379 1378 1377 1376 1375
1497 1496 1495 1495 1494 1493 1492 1491 1490 1489 1489 1488 1486 1485 1483 1482 1480 1478 1476 1475 1474 1472 1472 1471 1470 1469 1467 1465 1463 1462 1461 1460 1459 1458 1457 1456 1454 1452 1451 1449 1448 1446 1444 1442 1440 1438 1435 1433 1431 1429 1427 1425 1423 1421 1420 1418 1416 1415 1413 1412 1410 1409 1407 1406 1405 1403 1401 1400 1398 1396 1394 1392 1390 1389 1388 1386 1385 1383 1382 1380 1379 1378 1377 1376 1375 1374
1496 1495 1495 1494 1493 1492 1491 1491 1490 1489 1488 1486 1485 1484 1482 1481 1479 1478 1476 1475 1473 1472 1470 1469 1469 1468 1466 1464 1462 1460 1460 1458 1457 1456 1455 1454 1452 1450 1449 1447 1446 1444 1442 1440 1438 1436 1435 1432 1430 1428 1426 1424 1422 1420 1418 1416 1415 1413 1412 1410 1409 1408 1406 1405 1403 1402 1400 1398 1396 1395 1393 1391 1389 1388 1386 1385 1383 1382 1380 1379 1378 1376 1375 1374 1373 1372
1495 1495 1494 1493 1493 1492 1491 1490 1489 1488 1487 1485 1484 1483 1481 1480 1479 1477 1476 1474 1473 1471 1470 1468 1467 1466 1465 1463 1461 1460 1458 1457 1455 1454 1454 1453 1451 1449 1447 1445 1444 1442 1440 1438 1436 1435 1433 1431 1429 1427 1425 1423 1421 1419 1417 1415 1414 1412 1411 1409 1408 1406 1405 1404 1402 1400 1399 1397 1395 1393 1391 1390 1388 1386 1385 1383 1382 1380 1379 1377 1376 1375 1374 1373 1372 1371
1495 1494 1494 1493 1492 1491 1490 1490 1489 1488 1486 1485 1484 1482 1481 1480 1478 1477 1475 1473 1472 1470 1469 1467 1466 1465 1464 1463 1460 1458 1457 1455 1454 1452 1451 1451 1450 1448 1445 1443 1442 1440 1439 1437 1435 1434 1432 1430 1428 1426 1424 1422 1420 1418 1416 1414 1412 1411 1410 1408 1406 1405 1404 1402 1401 1399 1397 1396 1394 1392 1390 1389 1387 1385 1384 1382 1380 1379 1377 1376 1375 1374 1373 1372 1371 1370
1495 1494 1493 1492 1491 1490 1490 1489 1488 1487 1486 1485 1483 1482 1480 1479 1478 1476 1475 1473 1471 1469 1467 1465 1463 1462 1462 1462 1460 1458 1456 1454 1452 1450 1449 1448 1447 1446 1444 1441 1439 1438 1437 1436 1434 1432 1431 1429 1427 1425 1423 1420 1419 1417 1415 1413 1411 1410 1408 1407 1405 1404 1402 1401 1400 1398 1396 1395 1393 1391 1389 1387 1386 1384 1382 1381 1379 1378 1376 1375 1374 1373 1371 1370 1370 1368
1494 1493 1492 1492 1491 1490 1489 1489 1488 1486 1485 1484 1483 1481 1480 1479 1477 1475 1474 1472 1470 1468 1466 1465 1462 1460 1459 1459 1459 1458 1455 1453 1450 1449 1447 1446 1445 1444 1442 1440 1438 1436 1435 1434 1433 1431 1429 1427 1425 1423 1421 1420 1418 1416 1414 1412 1410 1409 1407 1406 1404 1403 1401 1400 1398 1397 1395 1393 1391 1390 1388 1386 1385 1383 1381 1380 1378 1377 1375 1374 1373 1372 1370 1369 1368 1367
1493 1493 1492 1491 1490 1490 1489 1488 1487 1486 1485 1483 1482 1481 1480 1479 1477 1475 1474 1472 1470 1468 1466 1465 1464 1462 1459 1457 1457 1456 1454 1452 1449 1447 1445 1444 1443 1442 1440 1439 1437 1435 1434 1433 1431 1430 1428 1426 1424 1422 1420 1418 1416 1415 1413 1410 1409 1407 1406 1405 1404 1402 1400 1399 1397 1395 1394 1392 1390 1389 1387 1385 1384 1382 1380 1379 1377 1376 1374 1373 1372 1370 1370 1368 1367 1366
1493 1492 1491 1491 1490 1489 1489 1487 1486 1485 1484 1482 1481 1480 1479 1478 1477 1475 1474 1472 1470 1469 1467 1465 1464 1462 1460 1458 1457 1455 1454 1451 1449 1446 1443 1442 1441 1440 1439 1437 1435 1434 1433 1431 1430 1428 1426 1425 1423 1421 1419 1417 1415 1413 1411 1409 1408 1406 1405 1405 1403 1401 1400 1398 1396 1394 1393 1391 1389 1388 1386 1384 1383 1381 1380 1378 1376 1375 1373 1372 1371 1370 1368 1367 1366 1365
1492 1492 1491 1490 1490 1489 1488 1487 1485 1484 1483 1482 1481 1480 1478 1477 1476 1475 1473 1472 1470 1469 1467 1465 1464 1462 1460 1458 1456 1455 1453 1450 1447 1445 1442 1440 1440 1439 1438 1436 1434 1432 1431 1430 1429 1427 1425 1423 1421 1419 1417 1415 1413 1411 1410 1408 1407 1406 1405 1404 1402 1400 1398 1397 1395 1393 1392 1390 1388 1386 1385 1383 1382 1380 1379 1377 1375 1374 1372 1371 1370 1369 1367 1366 1365 1364
1492 1491 1491 1490 1490 1489 1488 1486 1485 1484 1483 1481 1480 1479 1478 1476 1475 1474 1473 1471 1470 1469 1467 1465 1464 1462 1460 1458 1456 1454 1452 1449 1446 1444 1441 1439 1438 1438 1437 1435 1433 1431 1429 1428 1427 1426 1424 1422 1420 1418 1415 1414 1411 1410 1409 1407 1407 1405 1404 1402 1400 1399 1397 1395 1394 1392 1390 1389 1387 1385 1384 1382 1381 1379 1377 1376 1374 1373 1371 1370 1369 1367 1366 1365 1364 1363
1491 1491 1490 1490 1489 1488 1487 1486 1485 1483 1482 1481 1480 1478 1477 1476 1474 1473 1472 1470 1469 1468 1467 1465 1464 1462 1460 1458 1456 1454 1451 1449 1447 1444 1441 1438 1436 1436 1436 1434 1432 1430 1428 1426 1425 1424 1423 1421 1419 1416 1414 1412 1410 1409 1408 1407 1406 1405 1403 1401 1399 1398 1396 1394 1393 1391 1390 1388 1386 1385 1383 1381 1380 1378 1376 1375 1373 1372 1370 1369 1368 1366 1365 1364 1363 1361
1491 1491 1490 1490 1489 1488 1487 1485 1484 1483 1482 1481 1480 1478 1477 1476 1474 1473 1471 1470 1469 1467 1466 1465 1463 1461 1460 1457 1455 1453 1451 1449 1447 1445 1442 1439 1436 1435 1435 1432 1430 1428 1427 1425 1424 1422 1421 1419 1417 1415 1412 1411 1410 1409 1408 1406 1405 1403 1401 1400 1398 1397 1395 1394 1392 1390 1389 1387 1385 1383 1382 1380 1379 1377 1375 1374 1372 1371 1369 1368 1367 1365 1365 1363 1362 1360
1491 1491 1490 1490 1489 1487 1486 1485 1484 1483 1482 1480 1479 1478 1477 1475 1474 1473 1472 1470 1469 1467 1465 1463 1461 1460 1458 1456 1455 1453 1451 1449 1447 1445 1442 1439 1436 1435 1433 1431 1429 1427 1425 1425 1423 1421 1419 1417 1415 1413 1411 1410 1409 1408 1407 1405 1403 1401 1400 1399 1397 1396 1394 1393 1391 1389 1388 1386 1384 1382 1380 1379 1377 1376 1374 1373 1371 1370 1369 1367 1366 1365 1364 1362 1360 1359
1491 1490 1490 1489 1488 1487 1486 1485 1483 1482 1481 1480 1479 1478 1476 1475 1474 1473 1471 1470 1468 1466 1464 1462 1460 1458 1457 1455 1454 1452 1451 1449 1447 1444 1442 1439 1436 1434 1433 1431 1429 1426 1424 1423 1421 1420 1417 1415 1413 1412 1410 1410 1409 1408 1406 1404 1402 1400 1399 1398 1397 1395 1394 1392 1390 1389 1387 1385 1383 1381 1380 1378 1376 1375 1373 1372 1370 1369 1368 1367 1365 1364 1363 1361 1359 1358
1491 1490 1490 1489 1488 1486 1485 1484 1483 1482 1481 1480 1478 1477 1476 1475 1474 1473 1471 1469 1467 1465 1463 1461 1459 1457 1456 1454 1453 1451 1450 1448 1446 1444 1441 1439 1436 1433 1432 1431 1429 1426 1423 1421 1419 1418 1415 1413 1412 1411 1410 1409 1408 1406 1405 1402 1400 1399 1398 1397 1396 1394 1393 1391 1390 1388 1386 1384 1382 1380 1379 1377 1375 1374 1373 1371 1370 1369 1367 1366 1365 1364 1362 1360 1358 1357
1490 1490 1489 1488 1487 1486 1485 1484 1483 1482 1480 1479 1478 1477 1475 1474 1473 1472 1470 1469 1467 1465 1463 1460 1458 1456 1454 1453 1452 1451 1449 1447 1445 1443 1441 1439 1436 1434 1432 1430 1428 1425 1421 1419 1418 1416 1415 1413 1411 1410 1410 1408 1407 1405 1403 1401 1400 1398 1397 1396 1395 1393 1392 1390 1389 1387 1385 1383 1381 1380 1378 1376 1375 1373 1372 1370 1369 1368 1367 1366 1365 1363 1361 1359 1358 1356
1490 1490 1489 1488 1487 1486 1485 1484 1483 1481 1480 1479 1478 1477 1475 1474 1472 1471 1469 1468 1466 1465 1463 1460 1458 1455 1453 1452 1451 1450 1448 1446 1444 1442 1441 1439 1437 1434 1432 1430 1427 1424 1421 1418 1416 1415 1414 1412 1411 1410 1409 1407 1405 1403 1401 1400 1398 1397 1396 1395 1394 1392 1390 1389 1388 1386 1384 1382 1381 1379 1378 1376 1375 1373 1371 1370 1369 1368 1366 1365 1364 1362 1360 1359 1357 1356
1490 1489 1488 1487 1486 1485 1485 1484 1483 1482 1480 1479 1478 1477 1475 1474 1472 1471 1469 1468 1466 1464 1462 1460 1458 1456 1453 1451 1450 1449 1448 1446 1444 1442 1440 1438 1435 1433 1431 1429 1427 1424 1420 1416 1413 1412 1412 1412 1411 1409 1407 1406 1404 1402 1400 1399 1397 1396 1395 1394 1392 1391 1390 1388 1387 1385 1384 1382 1380 1379 1377 1375 1374 1372 1371 1370 1368 1367 1366 1365 1364 1362 1360 1358 1357 1356
1489 1489 1488 1487 1486 1485 1485 1484 1483 1482 1480 1480 1478 1477 1475 1474 1472 1470 1469 1467 1465 1464 1462 1460 1458 1456 1453 1450 1448 1446 1446 1446 1445 1442 1440 1437 1434 1432 1430 1428 1426 1424 1421 1417 1412 1409 1409 1409 1410 1409 1406 1405 1403 1401 1400 1398 1397 1395 1394 1393 1391 1390 1389 1388 1386 1385 1383 1381 1380 1378 1377 1375 1374 1372 1370 1369 1368 1367 1365 1365 1363 1361 1360 1358 1357 1355
1489 1488 1487 1486 1486 1485 1484 1484 1483 1482 1480 1479 1478 1476 1475 1473 1472 1470 1469 1467 1465 1463 1461 1460 1458 1456 1454 1451 1448 1446 1445 1445 1444 1442 1439 1437 1434 1432 1430 1428 1425 1424 1423 1420 1417 1412 1408 1405 1405 1406 1405 1404 1402 1401 1400 1398 1396 1395 1394 1392 1390 1389 1388 1387 1385 1384 1382 1381 1379 1378 1376 1375 1373 1372 1370 1369 1368 1366 1365 1364 1363 1361 1360 1358 1357 1356
1488 1488 1487 1486 1485 1485 1484 1483 1482 1481 1480 1479 1477 1476 1474 1473 1471 1470 1468 1466 1465 1463 1461 1460 1458 1456 1455 1453 1450 1448 1446 1444 1443 1441 1439 1436 1434 1431 1430 1428 1426 1424 1423 1422 1421 1419 1414 1408 1404 1403 1404 1403 1402 1400 1400 1398 1397 1395 1393 1392 1390 1389 1388 1386 1385 1383 1381 1380 1379 1377 1376 1375 1373 1371 1370 1369 1367 1366 1365 1364 1363 1361 1360 1359 1357 1356
1488 1487 1487 1486 1485 1484 1483 1482 1481 1480 1479 1478 1476 1475 1474 1472 1471 1469 1468 1466 1465 1463 1461 1459 1457 1456 1454 1453 1451 1450 1447 1445 1443 1441 1439 1436 1434 1431 1429 1428 1426 1424 1422 1421 1421 1420 1418 1413 1408 1405 1403 1403 1402 1401 1399 1398 1397 1395 1394 1392 1390 1389 1387 1386 1384 1383 1381 1380 1378 1377 1375 1374 1373 1371 1370 1369 1367 1366 1365 1364 1363 1361 1360 1359 1358 1356
1488 1487 1486 1486 1485 1484 1483 1481 1480 1479 1478 1477 1476 1475 1473 1472 1471 1469 1468 1466 1465 1463 1461 1459 1457 1455 1454 1452 1450 1449 1447 1446 1444 1442 1439 1437 1434 1431 1429 1427 1425 1424 1422 1420 1419 1417 1416 1414 1411 1407 1404 1403 1402 1401 1400 1398 1396 1395 1394 1392 1390 1389 1387 1385 1384 1383 1381 1380 1378 1377 1375 1374 1372 1371 1370 1369 1367 1366 1365 1364 1363 1362 1360 1360 1358 1357
1487 1487 1486 1485 1484 1483 1482 1481 1480 1479 1478 1477 1475 1474 1473 1472 1471 1469 1468 1466 1465 1463 1461 1459 1458 1456 1454 1451 1449 1447 1446 1445 1444 1442 1440 1437 1434 1431 1429 1427 1426 1424 1422 1420 1418 1416 1414 1412 1411 1409 1406 1403 1401 1401 1400 1399 1397 1395 1394 1393 1391 1389 1387 1386 1384 1383 1381 1380 1378 1377 1375 1374 1372 1371 1370 1369 1367 1366 1365 1364 1363 1362 1361 1360 1359 1357
1487 1486 1485 1485 1484 1483 1482 1481 1480 1479 1478 1476 1475 1474 1473 1472 1470 1469 1468 1466 1464 1463 1461 1459 1458 1456 1454 1452 1450 1447 1445 1444 1443 1441 1439 1437 1434 1432 1429 1427 1426 1425 1423 1420 1419 1417 1415 1412 1410 1409 1408 1405 1402 1400 1399 1398 1396 1395 1394 1392 1391 1389 1388 1386 1385 1383 1382 1380 1379 1377 1375 1374 1373 1371 1370 1369 1368 1367 1366 1365 1363 1362 1361 1360 1359 1358
1486 1485 1485 1484 1483 1482 1481 1480 1479 1478 1477 1476 1475 1474 1473 1472 1470 1469 1467 1466 1464 1462 1461 1459 1458 1456 1454 1452 1450 1448 1445 1443 1441 1440 1438 1436 1434 1432 1430 1428 1426 1425 1424 1421 1419 1417 1415 1412 1410 1408 1408 1406 1404 1401 1398 1396 1395 1394 1393 1392 1390 1389 1388 1386 1385 1384 1382 1380 1379 1377 1376 1375 1373 1372 1370 1369 1368 1367 1366 1365 1363 1362 1361 1360 1359 1358
1486 1485 1485 1484 1483 1482 1481 1480 1479 1477 1476 1475 1475 1474 1473 1471 1470 1468 1467 1465 1464 1462 1460 1459 1457 1456 1454 1452 1450 1448 1445 1443 1441 1439 1438 1436 1434 1432 1430 1428 1426 1425 1425 1423 1420 1418 1416 1414 1411 1409 1407 1406 1405 1403 1400 1397 1395 1394 1392 1391 1390 1389 1388 1386 1385 1384 1383 1381 1379 1378 1376 1375 1373 1372 1370 1369 1368 1366 1365 1364 1363 1362 1360 1360 1359 1358
1485 1485 1484 1483 1482 1481 1480 1479 1478 1477 1476 1475 1474 1473 1472 1471 1470 1468 1466 1465 1463 1461 1460 1459 1457 1455 1454 1452 1450 1448 1445 1443 1441 1439 1437 1435 1434 1432 1430 1428 1426 1425 1424 1422 1421 1419 1417 1415 1413 1411 1408 1406 1404 1402 1400 1398 1396 1394 1392 1391 1390 1389 1388 1387 1385 1384 1383 1381 1380 1378 1376 1375 1373 1372 1370 1369 1368 1366 1365 1364 1363 1361 1360 1359 1358 1357
1485 1485 1484 1483 1482 1481 1480 1479 1478 1477 1476 1475 1474 1473 1472 1470 1469 1468 1466 1464 1463 1461 1460 1458 1457 1455 1454 1451 1450 1447 1445 1443 1441 1439 1437 1435 1434 1432 1430 1429 1426 1425 1423 1422 1420 1419 1417 1415 1413 1412 1410 1408 1405 1402 1400 1398 1397 1395 1393 1391 1389 1388 1387 1387 1386 1385 1383 1381 1380 1378 1376 1375 1374 1372 1371 1370 1368 1367 1365 1364 1363 1362 1360 1360 1358 1357
1485 1484 1483 1482 1481 1480 1480 1479 1478 1477 1476 1475 1474 1472 1471 1470 1468 1467 1465 1464 1462 1460 1459 1458 1456 1455 1454 1452 1450 1447 1445 1443 1440 1438 1436 1435 1433 1432 1430 1428 1426 1424 1422 1421 1419 1418 1416 1414 1412 1411 1409 1408 1405 1403 1401 1399 1397 1396 1395 1393 1391 1390 1388 1387 1386 1385 1383 1382 1380 1378 1377 1375 1374 1372 1371 1370 1369 1367 1366 1365 1363 1362 1361 1360 1359 1358
1484 1484 1483 1482 1481 1480 1479 1479 1478 1477 1476 1475 1473 1471 1470 1469 1467 1465 1464 1462 1461 1459 1458 1456 1455 1453 1452 1450 1449 1447 1445 1442 1440 1438 1436 1434 1433 1431 1429 1427 1425 1424 1421 1419 1418 1416 1415 1413 1412 1410 1409 1407 1405 1403 1400 1399 1397 1396 1395 1394 1392 1390 1388 1387 1386 1385 1383 1382 1380 1379 1377 1375 1374 1373 1371 1370 1369 1368 1366 1365 1364 1363 1362 1361 1360 1359
1484 1483 1482 1481 1480 1480 1479 1478 1477 1476 1475 1474 1473 1471 1470 1468 1466 1465 1463 1461 1460 1458 1456 1455 1453 1451 1450 1448 1446 1445 1443 1441 1439 1437 1435 1434 1432 1430 1428 1426 1425 1423 1420 1418 1416 1415 1414 1413 1411 1410 1409 1407 1405 1403 1401 1399 1397 1396 1395 1395 1393 1391 1389 1387 1385 1384 1383 1382 1380 1379 1377 1376 1375 1373 1372 1370 1370 1368 1367 1366 1365 1364 1363 1362 1361 1360
1484 1483 1482 1481 1480 1480 1479 1478 1477 1476 1475 1474 1472 1471 1469 1468 1466 1464 1462 1460 1459 1457 1455 1454 1452 1450 1448 1446 1445 1443 1441 1440 1438 1436 1435 1433 1431 1429 1427 1425 1424 1422 1420 1417 1415 1413 1412 1412 1411 1410 1408 1407 1405 1403 1401 1400 1398 1396 1395 1395 1394 1392 1390 1388 1386 1384 1383 1381 1380 1379 1378 1376 1375 1373 1372 1371 1370 1369 1367 1366 1365 1364 1364 1363 1362 1361
1483 1483 1482 1481 1480 1479 1478 1477 1476 1475 1474 1473 1472 1470 1469 1467 1465 1463 1461 1460 1458 1457 1455 1453 1450 1448 1446 1445 1443 1441 1439 1438 1436 1435 1433 1432 1430 1428 1426 1425 1423 1421 1419 1417 1415 1413 1412 1411 1410 1409 1408 1406 1405 1403 1402 1400 1399 1397 1396 1395 1394 1392 1390 1389 1387 1385 1383 1381 1380 1379 1378 1377 1375 1374 1372 1371 1370 1369 1368 1366 1365 1365 1364 1363 1362 1361
1483 1482 1481 1480 1480 1479 1478 1477 1476 1475 1474 1473 1471 1470 1468 1467 1465 1463 1461 1460 1458 1456 1454 1452 1450 1448 1445 1443 1441 1439 1437 1436 1435 1433 1432 1430 1429 1427 1425 1424 1423 1421 1419 1416 1415 1413 1412 1411 1410 1408 1407 1405 1404 1403 1402 1401 1400 1398 1396 1395 1393 1391 1390 1388 1387 1385 1384 1382 1380 1379 1378 1377 1375 1374 1373 1371 1370 1369 1368 1367 1366 1365 1364 1363 1363 1362
1482 1482 1481 1480 1480 1479 1478 1477 1475 1475 1473 1472 1471 1469 1468 1466 1464 1463 1461 1459 1457 1455 1454 1452 1450 1448 1445 1443 1441 1439 1436 1435 1433 1431 1430 1429 1427 1426 1425 1423 1422 1421 1419 1416 1415 1413 1412 1411 1410 1409 1407 1405 1404 1403 1402 1402 1400 1399 1397 1395 1393 1391 1389 1388 1386 1385 1384 1383 1381 1380 1378 1377 1375 1374 1373 1372 1371 1370 1369 1368 1367 1366 1365 1364 1363 1362
1482 1481 1481 1480 1479 1478 1477 1476 1475 1474 1473 1472 1470 1469 1467 1465 1463 1462 1460 1459 1457 1455 1453 1451 1449 1447 1445 1443 1441 1439 1437 1435 1433 1431 1429 1427 1426 1425 1424 1422 1422 1420 1419 1417 1415 1414 1412 1411 1410 1409 1407 1406 1405 1404 1403 1402 1401 1399 1397 1395 1393 1391 1390 1388 1387 1385 1384 1383 1382 1380 1379 1378 1376 1375 1374 1372 1371 1370 1370 1369 1368 1367 1366 1365 1364 1362
1482 1481 1480 1480 1479 1478 1477 1475 1475 1473 1472 1471 1470 1468 1467 1465 1463 1462 1460 1458 1456 1454 1452 1450 1448 1446 1444 1442 1440 1439 1437 1435 1433 1431 1429 1427 1426 1424 1423 1422 1420 1420 1418 1417 1415 1414 1413 1412 1410 1409 1408 1407 1406 1405 1404 1402 1401 1399 1397 1395 1394 1392 1390 1388 1387 1385 1384 1383 1382 1381 1380 1378 1377 1376 1375 1374 1373 1372 1371 1370 1369 1368 1367 1365 1364 1363
1482 1481 1480 1480 1478 1477 1476 1475 1474 1473 1472 1470 1469 1468 1466 1465 1463 1462 1460 1458 1456 1454 1452 1450 1448 1446 1444 1442 1440 1438 1436 1434 1432 1431 1429 1427 1426 1424 1423 1421 1420 1418 1417 1415 1414 1413 1413 1412 1411 1410 1409 1408 1407 1406 1404 1402 1400 1399 1397 1396 1395 1393 1391 1389 1387 1386 1385 1383 1382 1381 1380 1379 1377 1376 1376 1375 1374 1373 1372 1371 1370 1369 1367 1366 1365 1364
1482 1481 1480 1479 1478 1477 1476 1475 1474 1473 1471 1470 1469 1467 1466 1464 1463 1461 1460 1458 1456 1454 1452 1450 1448 1446 1444 1442 1440 1438 1436 1434 1432 1430 1429 1428 1426 1425 1423 1421 1419 1417 1416 1414 1413 1412 1411 1411 1410 1410 1410 1409 1408 1406 1405 1403 1400 1399 1397 1396 1395 1393 1392 1390 1388 1387 1385 1384 1382 1381 1380 1379 1378 1377 1377 1376 1375 1374 1372 1371 1370 1370 1368 1367 1366 1365